AFR572 LFPG-HECA

Flight info

Callsign AFR572
Flight time 3h 44m
Altitude 35000
Route OKASI DCT OKEKO DCT MOU DCT MADIV DCT MOKIP DCT TUFTA DCT KOGAS DCT MEDAM DCT NITAM DCT MOGBO DCT LATAN DCT TRL DCT SIT UL612 KUMBI L612 BLT
Aircraft A359/H-SABDE2E3GHIJ1J2J3J4J5M1P2RWXYZ/LB1D1

Departure

Time 2026-05-05 12:34
Airport Charles de Gaulle International Airport (LFPG)

Arrival

Time 2026-05-05 16:18
Airport Cairo International Airport (HECA)
Time Latitude Longitude Altitude Speed Heading
2026-05-05 12:07 49.00143 2.57919 361 ft 0 kts 355°
2026-05-05 12:18 49.00142 2.57919 361 ft 0 kts 355°
2026-05-05 12:20 49.00158 2.57917 361 ft 0 kts 355°
2026-05-05 12:24 49.00146 2.57919 368 ft 4 kts 358°
2026-05-05 12:24 49.00119 2.57918 365 ft 4 kts
2026-05-05 12:24 49.00093 2.57909 365 ft 4 kts 24°
2026-05-05 12:24 49.00073 2.57888 367 ft 4 kts 64°
2026-05-05 12:25 49.00069 2.57874 360 ft 1 kts 85°
2026-05-05 12:27 49.00069 2.57873 360 ft 0 kts 85°
2026-05-05 12:28 49.00070 2.57898 360 ft 7 kts 85°
2026-05-05 12:28 49.00077 2.58032 367 ft 17 kts 85°
2026-05-05 12:29 49.00086 2.58196 366 ft 13 kts 85°
2026-05-05 12:29 49.00071 2.58304 368 ft 10 kts 135°
2026-05-05 12:29 49.00014 2.58285 365 ft 9 kts 242°
2026-05-05 12:29 49.00004 2.58165 364 ft 15 kts 265°
2026-05-05 12:30 48.99993 2.57959 366 ft 21 kts 265°
2026-05-05 12:30 48.99980 2.57725 367 ft 23 kts 265°
2026-05-05 12:30 48.99966 2.57472 362 ft 25 kts 265°
2026-05-05 12:30 48.99953 2.57224 365 ft 19 kts 265°
2026-05-05 12:31 48.99942 2.57033 366 ft 19 kts 264°
2026-05-05 12:31 48.99930 2.56823 367 ft 21 kts 265°
2026-05-05 12:31 48.99918 2.56592 367 ft 23 kts 265°
2026-05-05 12:31 48.99906 2.56344 360 ft 24 kts 265°
2026-05-05 12:32 48.99892 2.56085 360 ft 21 kts 265°
2026-05-05 12:32 48.99899 2.55890 368 ft 16 kts 277°
2026-05-05 12:32 48.99830 2.55801 368 ft 16 kts 181°
2026-05-05 12:32 48.99715 2.55812 365 ft 17 kts 175°
2026-05-05 12:33 48.99618 2.55838 367 ft 10 kts 141°
2026-05-05 12:33 48.99607 2.55950 360 ft 13 kts 86°
2026-05-05 12:33 48.99628 2.56346 369 ft 70 kts 85°
2026-05-05 12:33 48.99686 2.57426 360 ft 132 kts 85°
2026-05-05 12:34 48.99758 2.59039 658 ft 157 kts 83°
2026-05-05 12:34 48.99826 2.60644 1463 ft 153 kts 82°
2026-05-05 12:34 48.99896 2.62318 1903 ft 169 kts 82°
2026-05-05 12:34 48.99981 2.64223 2203 ft 193 kts 84°
2026-05-05 12:35 49.00116 2.66398 2542 ft 219 kts 83°
2026-05-05 12:35 49.00266 2.68804 3045 ft 236 kts 83°
2026-05-05 12:35 49.00415 2.71344 3757 ft 245 kts 84°
2026-05-05 12:35 49.00558 2.73950 4679 ft 250 kts 84°
2026-05-05 12:36 49.00651 2.76623 5552 ft 255 kts 89°
2026-05-05 12:36 49.00494 2.79341 6443 ft 261 kts 96°
2026-05-05 12:36 49.00164 2.82072 7301 ft 264 kts 104°
2026-05-05 12:36 48.99400 2.84639 8133 ft 270 kts 122°
2026-05-05 12:37 48.98027 2.86629 8957 ft 279 kts 147°
2026-05-05 12:37 48.96155 2.87472 9778 ft 288 kts 175°
2026-05-05 12:37 48.94103 2.87374 10374 ft 304 kts 182°
2026-05-05 12:37 48.91933 2.87094 10788 ft 321 kts 182°
2026-05-05 12:38 48.89683 2.86798 11459 ft 328 kts 182°
2026-05-05 12:38 48.87393 2.86514 12319 ft 331 kts 182°
2026-05-05 12:38 48.85084 2.86239 13211 ft 334 kts 182°
2026-05-05 12:38 48.82756 2.85970 14059 ft 338 kts 182°
2026-05-05 12:39 48.80396 2.85703 14818 ft 341 kts 182°
2026-05-05 12:39 48.78019 2.85436 15579 ft 345 kts 182°
2026-05-05 12:39 48.75616 2.85168 16332 ft 349 kts 182°
2026-05-05 12:39 48.73178 2.84896 17089 ft 352 kts 182°
2026-05-05 12:40 48.70734 2.84623 17850 ft 354 kts 182°
2026-05-05 12:40 48.68259 2.84348 18533 ft 358 kts 182°
2026-05-05 12:40 48.65767 2.84072 19181 ft 361 kts 182°
2026-05-05 12:40 48.63246 2.83794 19841 ft 364 kts 182°
2026-05-05 12:41 48.60709 2.83513 20498 ft 367 kts 182°
2026-05-05 12:41 48.58150 2.83230 21132 ft 370 kts 182°
2026-05-05 12:41 48.55573 2.82944 21840 ft 374 kts 183°
2026-05-05 12:41 48.52964 2.82656 22507 ft 377 kts 183°
2026-05-05 12:42 48.50338 2.82366 23192 ft 381 kts 183°
2026-05-05 12:42 48.47684 2.82074 23795 ft 384 kts 183°
2026-05-05 12:42 48.45005 2.81780 24367 ft 387 kts 183°
2026-05-05 12:42 48.42315 2.81485 24893 ft 390 kts 183°
2026-05-05 12:43 48.40518 2.81287 25232 ft 391 kts 183°
2026-05-05 12:43 48.37792 2.80988 25759 ft 396 kts 182°
2026-05-05 12:43 48.35028 2.80685 26300 ft 399 kts 182°
2026-05-05 12:43 48.32246 2.80381 26874 ft 403 kts 182°
2026-05-05 12:44 48.29438 2.80075 27449 ft 405 kts 182°
2026-05-05 12:44 48.26620 2.79767 28013 ft 408 kts 182°
2026-05-05 12:44 48.23771 2.79456 28484 ft 411 kts 182°
2026-05-05 12:44 48.20910 2.79145 28928 ft 414 kts 182°
2026-05-05 12:45 48.18026 2.78831 29405 ft 417 kts 182°
2026-05-05 12:45 48.15116 2.78515 29775 ft 421 kts 182°
2026-05-05 12:45 48.12179 2.78217 30141 ft 423 kts 180°
2026-05-05 12:45 48.09241 2.78329 30549 ft 423 kts 172°
2026-05-05 12:46 48.06351 2.79178 30888 ft 425 kts 162°
2026-05-05 12:46 48.03523 2.80587 31111 ft 431 kts 158°
2026-05-05 12:46 48.00724 2.82285 31298 ft 438 kts 155°
2026-05-05 12:46 47.97918 2.84130 31460 ft 444 kts 155°
2026-05-05 12:47 47.95069 2.86041 31606 ft 452 kts 155°
2026-05-05 12:47 47.92180 2.87964 31773 ft 458 kts 155°
2026-05-05 12:47 47.89258 2.89875 32060 ft 461 kts 155°
2026-05-05 12:47 47.86302 2.91777 32381 ft 463 kts 156°
2026-05-05 12:48 47.83334 2.93665 32690 ft 465 kts 156°
2026-05-05 12:48 47.80352 2.95548 32965 ft 467 kts 156°
2026-05-05 12:48 47.77355 2.97434 33309 ft 468 kts 156°
2026-05-05 12:48 47.74353 2.99321 33691 ft 469 kts 157°
2026-05-05 12:49 47.71348 3.01208 34074 ft 468 kts 157°
2026-05-05 12:49 47.68350 3.03089 34352 ft 469 kts 157°
2026-05-05 12:49 47.65342 3.04975 34606 ft 470 kts 157°
2026-05-05 12:49 47.62328 3.06862 34895 ft 470 kts 158°
2026-05-05 12:50 47.59313 3.08748 35155 ft 470 kts 158°
2026-05-05 12:50 47.56298 3.10633 35433 ft 470 kts 158°
2026-05-05 12:50 47.53284 3.12516 35695 ft 471 kts 158°
2026-05-05 12:50 47.50263 3.14405 35968 ft 471 kts 158°
2026-05-05 12:51 47.47242 3.16287 36242 ft 472 kts 158°
2026-05-05 12:51 47.44211 3.18169 36492 ft 472 kts 158°
2026-05-05 12:51 47.41181 3.20047 36747 ft 473 kts 159°
2026-05-05 12:51 47.38150 3.21924 37007 ft 473 kts 159°
2026-05-05 12:52 47.35110 3.23805 37259 ft 473 kts 159°
2026-05-05 12:52 47.32076 3.25682 37513 ft 474 kts 159°
2026-05-05 12:52 47.29039 3.27557 37739 ft 474 kts 159°
2026-05-05 12:52 47.25999 3.29433 37958 ft 474 kts 159°
2026-05-05 12:53 47.22953 3.31310 38163 ft 474 kts 159°
2026-05-05 12:53 47.19915 3.33180 38376 ft 474 kts 159°
2026-05-05 12:53 47.16869 3.35052 38581 ft 474 kts 159°
2026-05-05 12:53 47.13832 3.36917 38722 ft 474 kts 159°
2026-05-05 12:54 47.07747 3.40646 39002 ft 475 kts 159°
2026-05-05 12:54 47.04692 3.42515 39156 ft 476 kts 159°
2026-05-05 12:54 47.01635 3.44382 39287 ft 476 kts 159°
2026-05-05 12:55 46.98583 3.46244 39434 ft 476 kts 159°
2026-05-05 12:55 46.95522 3.48108 39574 ft 476 kts 159°
2026-05-05 12:55 46.92468 3.49968 39706 ft 476 kts 160°
2026-05-05 12:55 46.89402 3.51832 39822 ft 477 kts 160°
2026-05-05 12:56 46.86335 3.53693 39864 ft 478 kts 160°
2026-05-05 12:56 46.80207 3.57437 39870 ft 478 kts 158°
2026-05-05 12:57 46.74571 3.62617 39874 ft 484 kts 141°
2026-05-05 12:57 46.70263 3.70181 39874 ft 491 kts 122°
2026-05-05 12:58 46.67807 3.79517 39870 ft 498 kts 108°
2026-05-05 12:58 46.66131 3.89323 39868 ft 500 kts 106°
2026-05-05 12:59 46.64525 3.99159 39867 ft 500 kts 106°
2026-05-05 12:59 46.62856 4.08975 39861 ft 499 kts 107°
2026-05-05 13:00 46.60292 4.23644 39871 ft 499 kts 107°
2026-05-05 13:01 46.56842 4.43179 39876 ft 499 kts 107°
2026-05-05 13:01 46.55108 4.52933 39881 ft 499 kts 107°
2026-05-05 13:02 46.53377 4.62621 39885 ft 499 kts 107°
2026-05-05 13:02 46.51626 4.72364 39888 ft 499 kts 107°
2026-05-05 13:03 46.49867 4.82101 39886 ft 499 kts 108°
2026-05-05 13:03 46.48099 4.91835 39886 ft 499 kts 108°
2026-05-05 13:04 46.46322 5.01566 39890 ft 499 kts 108°
2026-05-05 13:04 46.44537 5.11296 39893 ft 500 kts 108°
2026-05-05 13:05 46.42745 5.21039 39892 ft 501 kts 108°
2026-05-05 13:05 46.40939 5.30785 39898 ft 501 kts 108°
2026-05-05 13:06 46.38763 5.40325 39899 ft 496 kts 119°
2026-05-05 13:06 46.35029 5.48577 39902 ft 488 kts 132°
2026-05-05 13:07 46.30673 5.56120 39902 ft 488 kts 134°
2026-05-05 13:07 46.26225 5.63531 39915 ft 489 kts 134°
2026-05-05 13:08 46.21770 5.70967 39908 ft 490 kts 134°
2026-05-05 13:08 46.17323 5.78430 39916 ft 491 kts 134°
2026-05-05 13:09 46.12870 5.85905 39916 ft 491 kts 134°
2026-05-05 13:09 46.08423 5.93352 39914 ft 490 kts 134°
2026-05-05 13:10 46.03966 6.00793 39911 ft 490 kts 135°
2026-05-05 13:10 45.99505 6.08219 39905 ft 490 kts 135°
2026-05-05 13:11 45.95036 6.15637 39910 ft 491 kts 135°
2026-05-05 13:11 45.90562 6.23042 39910 ft 491 kts 135°
2026-05-05 13:12 45.86085 6.30433 39913 ft 491 kts 135°
2026-05-05 13:12 45.81542 6.37708 39917 ft 487 kts 140°
2026-05-05 13:13 45.76311 6.43743 39918 ft 482 kts 148°
2026-05-05 13:13 45.70869 6.49334 39921 ft 481 kts 149°
2026-05-05 13:14 45.65389 6.54845 39919 ft 481 kts 149°
2026-05-05 13:14 45.59947 6.60328 39930 ft 482 kts 149°
2026-05-05 13:15 45.54481 6.65850 39915 ft 481 kts 149°
2026-05-05 13:15 45.49020 6.71362 39937 ft 480 kts 149°
2026-05-05 13:16 45.43566 6.76855 39935 ft 480 kts 149°
2026-05-05 13:16 45.38111 6.82339 39931 ft 480 kts 149°
2026-05-05 13:17 45.32649 6.87804 39952 ft 480 kts 149°
2026-05-05 13:17 45.27215 6.93329 39958 ft 483 kts 146°
2026-05-05 13:18 45.22221 6.99762 39979 ft 486 kts 141°
2026-05-05 13:18 45.17365 7.06427 39985 ft 486 kts 141°
2026-05-05 13:19 45.12539 7.13112 39986 ft 486 kts 140°
2026-05-05 13:19 45.08228 7.20575 39992 ft 492 kts 131°
2026-05-05 13:20 45.04242 7.28485 39990 ft 494 kts 130°
2026-05-05 13:20 45.00309 7.36451 39992 ft 494 kts 130°
2026-05-05 13:21 44.96623 7.44676 39971 ft 498 kts 125°
2026-05-05 13:21 44.93185 7.53152 39969 ft 498 kts 124°
2026-05-05 13:22 44.89767 7.61681 39972 ft 499 kts 124°
2026-05-05 13:22 44.86345 7.70192 39971 ft 499 kts 124°
2026-05-05 13:23 44.82910 7.78685 39970 ft 499 kts 125°
2026-05-05 13:23 44.79491 7.87103 39960 ft 499 kts 125°
2026-05-05 13:24 44.76042 7.95569 39966 ft 499 kts 125°
2026-05-05 13:24 44.72581 8.04037 39962 ft 500 kts 125°
2026-05-05 13:25 44.69110 8.12506 39959 ft 500 kts 125°
2026-05-05 13:25 44.65630 8.20974 39965 ft 500 kts 125°
2026-05-05 13:26 44.62143 8.29433 39961 ft 500 kts 125°
2026-05-05 13:26 44.58651 8.37879 39961 ft 501 kts 125°
2026-05-05 13:27 44.55142 8.46338 39968 ft 502 kts 125°
2026-05-05 13:27 44.51740 8.54516 39965 ft 502 kts 125°
2026-05-05 13:28 44.48219 8.62958 39968 ft 503 kts 125°
2026-05-05 13:28 44.45074 8.70474 39962 ft 502 kts 125°
2026-05-05 13:29 44.42110 8.77541 39966 ft 503 kts 125°
2026-05-05 13:29 44.38564 8.85971 39966 ft 503 kts 125°
2026-05-05 13:30 44.35374 8.93536 39965 ft 503 kts 125°
2026-05-05 13:30 44.32696 8.99869 39966 ft 503 kts 125°
2026-05-05 13:31 44.29716 9.06898 39963 ft 503 kts 125°
2026-05-05 13:31 44.26425 9.14647 39956 ft 502 kts 125°
2026-05-05 13:32 44.22855 9.23028 39971 ft 503 kts 125°
2026-05-05 13:32 44.19398 9.31118 39971 ft 503 kts 125°
2026-05-05 13:33 44.16238 9.38492 39969 ft 504 kts 125°
2026-05-05 13:33 44.12645 9.46855 39961 ft 503 kts 125°
2026-05-05 13:34 44.09043 9.55215 39976 ft 504 kts 125°
2026-05-05 13:34 44.05431 9.63574 39980 ft 504 kts 125°
2026-05-05 13:35 44.01818 9.71910 39986 ft 504 kts 125°
2026-05-05 13:35 43.98194 9.80247 39987 ft 505 kts 126°
2026-05-05 13:36 43.94553 9.88599 39987 ft 506 kts 126°
2026-05-05 13:36 43.90910 9.96932 39989 ft 505 kts 126°
2026-05-05 13:37 43.87259 10.05260 39988 ft 505 kts 126°
2026-05-05 13:37 43.83603 10.13576 39986 ft 505 kts 126°
2026-05-05 13:38 43.79940 10.21882 39978 ft 505 kts 126°
2026-05-05 13:38 43.76274 10.30171 39991 ft 504 kts 126°
2026-05-05 13:39 43.72602 10.38450 39994 ft 507 kts 126°
2026-05-05 13:39 43.68905 10.46760 39993 ft 507 kts 126°
2026-05-05 13:40 43.65206 10.55055 39993 ft 507 kts 126°
2026-05-05 13:40 43.61497 10.63347 39989 ft 508 kts 126°
2026-05-05 13:41 43.57780 10.71633 39984 ft 508 kts 126°
2026-05-05 13:41 43.54055 10.79913 39981 ft 508 kts 126°
2026-05-05 13:42 43.50327 10.88178 39984 ft 508 kts 126°
2026-05-05 13:42 43.46583 10.96452 39986 ft 509 kts 126°
2026-05-05 13:43 43.42827 11.04730 39988 ft 510 kts 126°
2026-05-05 13:43 43.39066 11.12995 39987 ft 510 kts 126°
2026-05-05 13:44 43.35303 11.21244 39994 ft 510 kts 126°
2026-05-05 13:44 43.31527 11.29495 39993 ft 510 kts 126°
2026-05-05 13:45 43.27746 11.37734 39996 ft 510 kts 126°
2026-05-05 13:45 43.23956 11.45970 40004 ft 511 kts 126°
2026-05-05 13:46 43.20148 11.54223 40004 ft 513 kts 127°
2026-05-05 13:46 43.16333 11.62468 40006 ft 513 kts 127°
2026-05-05 13:47 43.12507 11.70712 40016 ft 513 kts 126°
2026-05-05 13:47 43.08679 11.78940 40006 ft 513 kts 127°
2026-05-05 13:48 43.04845 11.87157 40024 ft 512 kts 127°
2026-05-05 13:48 43.01005 11.95363 40013 ft 512 kts 127°
2026-05-05 13:49 42.97157 12.03565 40017 ft 514 kts 127°
2026-05-05 13:49 42.93317 12.11722 40021 ft 515 kts 127°
2026-05-05 13:50 42.89445 12.19929 40025 ft 514 kts 127°
2026-05-05 13:50 42.85572 12.28116 40020 ft 514 kts 127°
2026-05-05 13:51 42.81683 12.36313 40027 ft 514 kts 127°
2026-05-05 13:51 42.77798 12.44478 40027 ft 514 kts 127°
2026-05-05 13:52 42.73909 12.52630 40018 ft 513 kts 127°
2026-05-05 13:52 42.70013 12.60773 40044 ft 514 kts 127°
2026-05-05 13:53 42.66102 12.68927 40060 ft 515 kts 127°
2026-05-05 13:53 42.62189 12.77064 40078 ft 515 kts 127°
2026-05-05 13:54 42.58268 12.85193 40089 ft 515 kts 127°
2026-05-05 13:54 42.54338 12.93320 40092 ft 515 kts 127°
2026-05-05 13:55 42.50401 13.01435 40093 ft 515 kts 127°
2026-05-05 13:55 42.46461 13.09537 40083 ft 515 kts 127°
2026-05-05 13:56 42.42512 13.17641 40050 ft 516 kts 127°
2026-05-05 13:56 42.38552 13.25741 40043 ft 516 kts 127°
2026-05-05 13:57 42.34584 13.33832 40042 ft 517 kts 127°
2026-05-05 13:57 42.30604 13.41929 40045 ft 517 kts 127°
2026-05-05 13:58 42.26622 13.49996 40029 ft 517 kts 127°
2026-05-05 13:58 42.22632 13.58078 40023 ft 517 kts 127°
2026-05-05 13:59 42.16929 13.69590 40030 ft 517 kts 128°
2026-05-05 14:00 42.11592 13.80312 40039 ft 518 kts 128°
2026-05-05 14:00 42.06923 13.89661 40023 ft 518 kts 128°
2026-05-05 14:01 42.02900 13.97697 40015 ft 518 kts 128°
2026-05-05 14:01 41.98874 14.05717 40023 ft 517 kts 128°
2026-05-05 14:02 41.94836 14.13732 40006 ft 517 kts 128°
2026-05-05 14:02 41.90938 14.21455 40019 ft 517 kts 128°
2026-05-05 14:03 41.86998 14.29244 40021 ft 518 kts 128°
2026-05-05 14:03 41.82946 14.37233 40018 ft 518 kts 128°
2026-05-05 14:04 41.78892 14.45206 40018 ft 517 kts 128°
2026-05-05 14:04 41.74836 14.53159 40024 ft 518 kts 128°
2026-05-05 14:05 41.70771 14.61107 40022 ft 517 kts 128°
2026-05-05 14:05 41.66734 14.68982 40017 ft 518 kts 128°
2026-05-05 14:06 41.62692 14.76848 40034 ft 519 kts 128°
2026-05-05 14:06 41.58786 14.84426 40038 ft 519 kts 128°
2026-05-05 14:07 41.55208 14.91362 40043 ft 519 kts 128°
2026-05-05 14:07 41.51100 14.99292 40041 ft 520 kts 128°
2026-05-05 14:08 41.46976 15.07231 40025 ft 521 kts 128°
2026-05-05 14:08 41.42874 15.15113 40038 ft 521 kts 128°
2026-05-05 14:09 41.38738 15.23038 40049 ft 521 kts 128°
2026-05-05 14:09 41.34588 15.30970 40064 ft 524 kts 127°
2026-05-05 14:10 41.30416 15.38926 40066 ft 525 kts 127°
2026-05-05 14:10 41.26235 15.46876 40065 ft 525 kts 127°
2026-05-05 14:11 41.22043 15.54826 40061 ft 525 kts 127°
2026-05-05 14:11 41.17855 15.62747 40067 ft 525 kts 127°
2026-05-05 14:12 41.13643 15.70679 40044 ft 525 kts 127°
2026-05-05 14:12 41.09487 15.78509 40036 ft 523 kts 127°
2026-05-05 14:13 41.05290 15.86396 40045 ft 523 kts 127°
2026-05-05 14:13 41.01089 15.94264 40047 ft 523 kts 127°
2026-05-05 14:14 40.96882 16.02121 40062 ft 523 kts 127°
2026-05-05 14:14 40.92663 16.09981 40052 ft 524 kts 127°
2026-05-05 14:15 40.88442 16.17824 40053 ft 524 kts 127°
2026-05-05 14:15 40.84217 16.25656 40050 ft 524 kts 127°
2026-05-05 14:16 40.79978 16.33494 40046 ft 522 kts 127°
2026-05-05 14:16 40.76447 16.40008 40065 ft 520 kts 127°
2026-05-05 14:17 40.72234 16.47761 40070 ft 520 kts 127°
2026-05-05 14:17 40.68014 16.55509 40104 ft 520 kts 127°
2026-05-05 14:18 40.63791 16.63241 40132 ft 520 kts 127°
2026-05-05 14:18 40.59588 16.70919 40147 ft 520 kts 127°
2026-05-05 14:19 40.55367 16.78611 40161 ft 518 kts 127°
2026-05-05 14:19 40.51149 16.86280 40148 ft 517 kts 128°
2026-05-05 14:20 40.46931 16.93927 40082 ft 517 kts 128°
2026-05-05 14:20 40.42853 17.01304 40074 ft 517 kts 128°
2026-05-05 14:21 40.38625 17.08931 40074 ft 517 kts 128°
2026-05-05 14:21 40.34393 17.16550 40076 ft 517 kts 128°
2026-05-05 14:22 40.30150 17.24171 40075 ft 517 kts 128°
2026-05-05 14:22 40.25904 17.31776 40073 ft 517 kts 128°
2026-05-05 14:23 40.21655 17.39370 40074 ft 517 kts 128°
2026-05-05 14:23 40.17398 17.46958 40075 ft 517 kts 128°
2026-05-05 14:24 40.13138 17.54535 40078 ft 517 kts 128°
2026-05-05 14:24 40.08872 17.62104 40081 ft 517 kts 128°
2026-05-05 14:25 40.04623 17.69624 40078 ft 517 kts 128°
2026-05-05 14:25 40.00320 17.77221 40079 ft 518 kts 128°
2026-05-05 14:26 39.96061 17.84722 40081 ft 518 kts 128°
2026-05-05 14:26 39.91744 17.92309 40085 ft 518 kts 128°
2026-05-05 14:27 39.87452 17.99834 40088 ft 517 kts 128°
2026-05-05 14:27 39.83185 18.07296 40089 ft 517 kts 128°
2026-05-05 14:28 39.78885 18.14798 40091 ft 517 kts 128°
2026-05-05 14:28 39.74579 18.22293 40097 ft 517 kts 128°
2026-05-05 14:29 39.70267 18.29780 40097 ft 517 kts 128°
2026-05-05 14:29 39.65951 18.37257 40097 ft 517 kts 128°
2026-05-05 14:30 39.61633 18.44720 40104 ft 518 kts 128°
2026-05-05 14:30 39.57301 18.52188 40099 ft 518 kts 128°
2026-05-05 14:31 39.52965 18.59651 40099 ft 519 kts 128°
2026-05-05 14:31 39.48653 18.67140 40099 ft 519 kts 128°
2026-05-05 14:32 39.44318 18.74610 40105 ft 519 kts 128°
2026-05-05 14:32 39.39966 18.82046 40105 ft 519 kts 128°
2026-05-05 14:33 39.35581 18.89467 40108 ft 520 kts 129°
2026-05-05 14:33 39.31181 18.96890 40108 ft 520 kts 129°
2026-05-05 14:34 39.26845 19.04353 40115 ft 520 kts 125°
2026-05-05 14:34 39.22772 19.12060 40116 ft 520 kts 125°
2026-05-05 14:35 39.18689 19.19774 40113 ft 522 kts 125°
2026-05-05 14:35 39.14553 19.27469 40116 ft 522 kts 125°
2026-05-05 14:36 39.10415 19.35145 40118 ft 522 kts 126°
2026-05-05 14:36 39.06269 19.42817 40118 ft 522 kts 126°
2026-05-05 14:37 39.02070 19.50448 40119 ft 522 kts 126°
2026-05-05 14:37 38.97869 19.58068 40121 ft 523 kts 126°
2026-05-05 14:38 38.93676 19.65711 40118 ft 523 kts 126°
2026-05-05 14:38 38.89489 19.73340 40121 ft 523 kts 126°
2026-05-05 14:39 38.85294 19.80967 40129 ft 523 kts 126°
2026-05-05 14:39 38.81086 19.88607 40121 ft 525 kts 126°
2026-05-05 14:40 38.76886 19.96265 40121 ft 525 kts 125°
2026-05-05 14:40 38.72677 20.03924 40122 ft 525 kts 124°
2026-05-05 14:41 38.68499 20.11601 40123 ft 526 kts 124°
2026-05-05 14:41 38.64295 20.19287 40125 ft 528 kts 124°
2026-05-05 14:42 38.60036 20.26941 40124 ft 529 kts 125°
2026-05-05 14:42 38.55738 20.34568 40124 ft 529 kts 126°
2026-05-05 14:43 38.51433 20.42179 40124 ft 529 kts 125°
2026-05-05 14:43 38.47165 20.49750 40125 ft 529 kts 126°
2026-05-05 14:44 38.42825 20.57344 40122 ft 530 kts 127°
2026-05-05 14:44 38.38435 20.64990 40105 ft 531 kts 127°
2026-05-05 14:45 38.34099 20.72610 40114 ft 531 kts 127°
2026-05-05 14:45 38.29805 20.80184 40116 ft 531 kts 127°
2026-05-05 14:46 38.25443 20.87857 40113 ft 532 kts 127°
2026-05-05 14:46 38.21099 20.95482 40113 ft 532 kts 127°
2026-05-05 14:47 38.16782 21.03039 40109 ft 532 kts 127°
2026-05-05 14:47 38.12400 21.10695 40107 ft 532 kts 127°
2026-05-05 14:48 38.08042 21.18288 40107 ft 533 kts 127°
2026-05-05 14:48 38.03672 21.25886 40104 ft 534 kts 127°
2026-05-05 14:49 37.99316 21.33444 40105 ft 534 kts 127°
2026-05-05 14:49 37.94931 21.41032 40128 ft 534 kts 127°
2026-05-05 14:50 37.90538 21.48618 40125 ft 534 kts 127°
2026-05-05 14:50 37.86141 21.56192 40122 ft 534 kts 127°
2026-05-05 14:51 37.81735 21.63766 40111 ft 534 kts 127°
2026-05-05 14:51 37.77330 21.71319 40111 ft 534 kts 127°
2026-05-05 14:52 37.72917 21.78871 40096 ft 534 kts 127°
2026-05-05 14:52 37.68501 21.86409 40110 ft 534 kts 127°
2026-05-05 14:53 37.64071 21.93952 40107 ft 534 kts 127°
2026-05-05 14:53 37.59641 22.01482 40106 ft 535 kts 127°
2026-05-05 14:54 37.55202 22.09008 40102 ft 535 kts 127°
2026-05-05 14:54 37.50761 22.16520 40102 ft 535 kts 127°
2026-05-05 14:55 37.46307 22.24038 40093 ft 535 kts 127°
2026-05-05 14:55 37.41852 22.31541 40095 ft 535 kts 127°
2026-05-05 14:56 37.37419 22.39071 40085 ft 536 kts 126°
2026-05-05 14:56 37.33063 22.46686 40085 ft 537 kts 126°
2026-05-05 14:57 37.28702 22.54314 40072 ft 538 kts 126°
2026-05-05 14:57 37.24352 22.61873 40068 ft 538 kts 127°
2026-05-05 14:58 37.19959 22.69469 40069 ft 538 kts 126°
2026-05-05 14:58 37.15556 22.77065 40066 ft 538 kts 127°
2026-05-05 14:59 37.11147 22.84647 40072 ft 539 kts 126°
2026-05-05 14:59 37.06731 22.92228 40066 ft 539 kts 126°
2026-05-05 15:00 37.03050 22.98537 40066 ft 539 kts 126°
2026-05-05 15:00 36.97871 23.07392 40069 ft 540 kts 126°
2026-05-05 15:01 36.93433 23.14962 40066 ft 540 kts 126°
2026-05-05 15:01 36.88988 23.22525 40064 ft 540 kts 126°
2026-05-05 15:02 36.84541 23.30076 40067 ft 540 kts 127°
2026-05-05 15:02 36.80838 23.36350 40066 ft 540 kts 127°
2026-05-05 15:03 36.76380 23.43888 40067 ft 540 kts 126°
2026-05-05 15:03 36.71920 23.51414 40067 ft 540 kts 127°
2026-05-05 15:04 36.67455 23.58931 40070 ft 539 kts 127°
2026-05-05 15:04 36.62987 23.66435 40072 ft 539 kts 127°
2026-05-05 15:05 36.56278 23.77672 40077 ft 539 kts 127°
2026-05-05 15:06 36.51806 23.85142 40073 ft 539 kts 127°
2026-05-05 15:06 36.47327 23.92609 40075 ft 539 kts 127°
2026-05-05 15:07 36.42837 24.00077 40081 ft 539 kts 127°
2026-05-05 15:07 36.38347 24.07528 40096 ft 539 kts 126°
2026-05-05 15:08 36.33857 24.14962 40079 ft 538 kts 127°
2026-05-05 15:08 36.29365 24.22385 40083 ft 538 kts 127°
2026-05-05 15:09 36.24872 24.29792 40083 ft 538 kts 127°
2026-05-05 15:09 36.20369 24.37200 40086 ft 538 kts 127°
2026-05-05 15:10 36.15897 24.44541 40085 ft 538 kts 127°
2026-05-05 15:10 36.11389 24.51926 40084 ft 538 kts 127°
2026-05-05 15:11 36.06840 24.59362 40083 ft 538 kts 127°
2026-05-05 15:11 36.02354 24.66680 40083 ft 538 kts 127°
2026-05-05 15:12 35.97830 24.74043 40083 ft 538 kts 127°
2026-05-05 15:12 35.93306 24.81389 40086 ft 538 kts 127°
2026-05-05 15:13 35.88778 24.88728 40086 ft 538 kts 127°
2026-05-05 15:13 35.84244 24.96060 40086 ft 538 kts 127°
2026-05-05 15:14 35.79702 25.03389 40084 ft 538 kts 127°
2026-05-05 15:14 35.75158 25.10707 40083 ft 538 kts 127°
2026-05-05 15:15 35.70609 25.18017 40089 ft 538 kts 127°
2026-05-05 15:15 35.66056 25.25318 40091 ft 538 kts 127°
2026-05-05 15:16 35.61496 25.32615 40086 ft 538 kts 127°
2026-05-05 15:16 35.56929 25.39907 40086 ft 538 kts 127°
2026-05-05 15:17 35.52361 25.47187 40089 ft 538 kts 127°
2026-05-05 15:17 35.47791 25.54453 40089 ft 538 kts 127°
2026-05-05 15:18 35.43212 25.61718 40086 ft 538 kts 127°
2026-05-05 15:18 35.38630 25.68974 40090 ft 538 kts 127°
2026-05-05 15:19 35.34041 25.76225 40085 ft 539 kts 127°
2026-05-05 15:19 35.29440 25.83481 40070 ft 539 kts 128°
2026-05-05 15:20 35.24837 25.90725 40078 ft 539 kts 128°
2026-05-05 15:20 35.20232 25.97957 40078 ft 539 kts 128°
2026-05-05 15:21 35.15624 26.05178 40080 ft 539 kts 128°
2026-05-05 15:21 35.11013 26.12388 40080 ft 538 kts 128°
2026-05-05 15:22 35.06519 26.19691 40080 ft 538 kts 122°
2026-05-05 15:22 35.02475 26.27383 40079 ft 538 kts 121°
2026-05-05 15:23 34.98514 26.35133 40075 ft 538 kts 121°
2026-05-05 15:23 34.94564 26.42874 40069 ft 538 kts 121°
2026-05-05 15:24 34.90597 26.50607 40063 ft 538 kts 121°
2026-05-05 15:24 34.86622 26.58323 40076 ft 538 kts 122°
2026-05-05 15:25 34.82635 26.66044 40070 ft 538 kts 122°
2026-05-05 15:25 34.78647 26.73749 40073 ft 538 kts 122°
2026-05-05 15:26 34.74651 26.81453 40066 ft 538 kts 122°
2026-05-05 15:26 34.70649 26.89152 40071 ft 539 kts 122°
2026-05-05 15:27 34.66642 26.96845 40065 ft 539 kts 122°
2026-05-05 15:27 34.62628 27.04534 40068 ft 539 kts 122°
2026-05-05 15:28 34.58607 27.12220 40067 ft 539 kts 122°
2026-05-05 15:28 34.54585 27.19891 40070 ft 539 kts 122°
2026-05-05 15:29 34.50547 27.27576 40062 ft 540 kts 122°
2026-05-05 15:29 34.46504 27.35253 40062 ft 540 kts 122°
2026-05-05 15:30 34.42458 27.42920 40063 ft 540 kts 122°
2026-05-05 15:30 34.38407 27.50582 40065 ft 540 kts 123°
2026-05-05 15:31 34.34343 27.58249 40065 ft 541 kts 123°
2026-05-05 15:31 34.30279 27.65900 40064 ft 540 kts 123°
2026-05-05 15:32 34.26215 27.73536 40064 ft 540 kts 123°
2026-05-05 15:32 34.22141 27.81175 40064 ft 540 kts 123°
2026-05-05 15:33 34.18063 27.88804 40059 ft 540 kts 123°
2026-05-05 15:33 34.13984 27.96418 40064 ft 540 kts 123°
2026-05-05 15:34 34.09896 28.04034 40061 ft 540 kts 123°
2026-05-05 15:34 34.05804 28.11643 40050 ft 540 kts 123°
2026-05-05 15:35 34.01710 28.19237 40063 ft 540 kts 123°
2026-05-05 15:35 33.97615 28.26816 40061 ft 540 kts 124°
2026-05-05 15:36 33.93516 28.34389 40057 ft 540 kts 124°
2026-05-05 15:36 33.89436 28.41909 40060 ft 540 kts 124°
2026-05-05 15:37 33.85293 28.49531 40058 ft 541 kts 124°
2026-05-05 15:37 33.81196 28.57051 40059 ft 541 kts 124°
2026-05-05 15:38 33.77047 28.64651 40058 ft 541 kts 124°
2026-05-05 15:38 33.72931 28.72151 40055 ft 540 kts 126°
2026-05-05 15:39 33.67968 28.78846 40055 ft 536 kts 138°
2026-05-05 15:39 33.62559 28.85018 40056 ft 536 kts 140°
2026-05-05 15:40 33.57101 28.91082 40058 ft 535 kts 140°
2026-05-05 15:40 33.51641 28.97153 40065 ft 535 kts 140°
2026-05-05 15:41 33.46201 29.03219 40061 ft 535 kts 140°
2026-05-05 15:41 33.41844 29.08080 40061 ft 535 kts 140°
2026-05-05 15:42 33.36397 29.14147 40060 ft 535 kts 140°
2026-05-05 15:42 33.30952 29.20201 40058 ft 534 kts 140°
2026-05-05 15:43 33.25515 29.26235 40065 ft 532 kts 140°
2026-05-05 15:43 33.20092 29.32241 40064 ft 532 kts 140°
2026-05-05 15:44 33.14659 29.38247 40058 ft 532 kts 140°
2026-05-05 15:44 33.09228 29.44241 40065 ft 532 kts 141°
2026-05-05 15:45 33.03792 29.50229 40064 ft 532 kts 141°
2026-05-05 15:45 32.98356 29.56209 40055 ft 532 kts 141°
2026-05-05 15:46 32.92921 29.62176 40066 ft 531 kts 141°
2026-05-05 15:46 32.87488 29.68130 40066 ft 531 kts 141°
2026-05-05 15:47 32.82055 29.74074 40069 ft 531 kts 141°
2026-05-05 15:47 32.77537 29.79008 40072 ft 531 kts 141°
2026-05-05 15:48 32.72092 29.84947 40069 ft 531 kts 141°
2026-05-05 15:48 32.66653 29.90869 40065 ft 531 kts 141°
2026-05-05 15:49 32.61202 29.96792 40069 ft 531 kts 141°
2026-05-05 15:49 32.55758 30.02699 40070 ft 531 kts 142°
2026-05-05 15:50 32.50307 30.08602 40070 ft 531 kts 142°
2026-05-05 15:50 32.44855 30.14501 40071 ft 531 kts 142°
2026-05-05 15:51 32.39401 30.20372 40070 ft 531 kts 142°
2026-05-05 15:51 32.33934 30.26244 40045 ft 530 kts 142°
2026-05-05 15:52 32.28464 30.32115 40072 ft 531 kts 142°
2026-05-05 15:52 32.22993 30.37977 40072 ft 531 kts 143°
2026-05-05 15:53 32.17521 30.43831 40072 ft 531 kts 143°
2026-05-05 15:53 32.12038 30.49687 40072 ft 532 kts 143°
2026-05-05 15:54 32.06515 30.55478 40069 ft 528 kts 148°
2026-05-05 15:54 32.03410 30.57653 40078 ft 513 kts 164°
2026-05-05 15:54 32.00051 30.58808 40053 ft 496 kts 179°
2026-05-05 15:54 31.96651 30.59062 39840 ft 485 kts 188°
2026-05-05 15:55 31.93283 30.58979 39610 ft 484 kts 189°
2026-05-05 15:55 31.89915 30.58833 39376 ft 485 kts 190°
2026-05-05 15:55 31.86540 30.58677 39141 ft 485 kts 190°
2026-05-05 15:55 31.83172 30.58520 38817 ft 485 kts 190°
2026-05-05 15:56 31.79798 30.58364 38240 ft 485 kts 190°
2026-05-05 15:56 31.76428 30.58219 37615 ft 485 kts 190°
2026-05-05 15:56 31.73042 30.58085 37034 ft 486 kts 190°
2026-05-05 15:56 31.69656 30.57956 36473 ft 488 kts 190°
2026-05-05 15:57 31.66258 30.57829 35925 ft 490 kts 190°
2026-05-05 15:57 31.62843 30.57705 35389 ft 492 kts 190°
2026-05-05 15:57 31.59412 30.57582 34854 ft 494 kts 190°
2026-05-05 15:57 31.55973 30.57462 34306 ft 496 kts 190°
2026-05-05 15:58 31.52515 30.57338 33497 ft 498 kts 189°
2026-05-05 15:58 31.49042 30.57204 32711 ft 499 kts 189°
2026-05-05 15:58 31.45565 30.57064 31949 ft 502 kts 189°
2026-05-05 15:58 31.42073 30.56917 31205 ft 502 kts 189°
2026-05-05 15:59 31.38581 30.56766 30473 ft 500 kts 189°
2026-05-05 15:59 31.35110 30.56614 29708 ft 498 kts 189°
2026-05-05 15:59 31.31658 30.56459 28843 ft 496 kts 189°
2026-05-05 15:59 31.28223 30.56290 28047 ft 493 kts 189°
2026-05-05 16:00 31.24806 30.56115 27278 ft 490 kts 189°
2026-05-05 16:00 31.21405 30.55942 26527 ft 487 kts 189°
2026-05-05 16:00 31.18031 30.55771 25794 ft 485 kts 189°
2026-05-05 16:00 31.14666 30.55602 25077 ft 482 kts 189°
2026-05-05 16:01 31.11334 30.55436 24390 ft 478 kts 189°
2026-05-05 16:01 31.08018 30.55271 23683 ft 475 kts 189°
2026-05-05 16:01 31.04772 30.55112 22909 ft 472 kts 189°
2026-05-05 16:01 31.01504 30.54946 22114 ft 468 kts 189°
2026-05-05 16:02 30.98267 30.54768 21353 ft 464 kts 189°
2026-05-05 16:02 30.95062 30.54579 20613 ft 459 kts 189°
2026-05-05 16:02 30.91886 30.54378 19883 ft 455 kts 189°
2026-05-05 16:02 30.88737 30.54178 19189 ft 452 kts 188°
2026-05-05 16:03 30.85583 30.54349 18495 ft 457 kts 177°
2026-05-05 16:03 30.82501 30.55311 17704 ft 462 kts 162°
2026-05-05 16:03 30.79686 30.57128 16944 ft 464 kts 150°
2026-05-05 16:03 30.77033 30.59236 16192 ft 460 kts 148°
2026-05-05 16:04 30.74421 30.61370 15460 ft 455 kts 148°
2026-05-05 16:04 30.71852 30.63473 14784 ft 450 kts 148°
2026-05-05 16:04 30.69312 30.65548 14126 ft 444 kts 147°
2026-05-05 16:04 30.66798 30.67599 13389 ft 438 kts 147°
2026-05-05 16:05 30.64319 30.69619 12651 ft 432 kts 147°
2026-05-05 16:05 30.61877 30.71607 11940 ft 426 kts 147°
2026-05-05 16:05 30.59467 30.73567 11234 ft 420 kts 147°
2026-05-05 16:05 30.57089 30.75501 10553 ft 414 kts 146°
2026-05-05 16:06 30.54749 30.77403 9860 ft 408 kts 146°
2026-05-05 16:06 30.52439 30.79278 9129 ft 402 kts 146°
2026-05-05 16:06 30.50171 30.81120 8426 ft 395 kts 146°
2026-05-05 16:06 30.47937 30.82931 7676 ft 390 kts 146°
2026-05-05 16:07 30.45770 30.84689 7042 ft 367 kts 146°
2026-05-05 16:07 30.43743 30.86333 6825 ft 345 kts 146°
2026-05-05 16:07 30.41853 30.87865 6922 ft 318 kts 146°
2026-05-05 16:07 30.40104 30.89283 7043 ft 299 kts 147°
2026-05-05 16:08 30.38417 30.90646 7055 ft 294 kts 146°
2026-05-05 16:08 30.36749 30.91993 7054 ft 291 kts 147°
2026-05-05 16:08 30.35086 30.93335 7053 ft 293 kts 147°
2026-05-05 16:08 30.33416 30.94682 7055 ft 293 kts 146°
2026-05-05 16:09 30.31775 30.96006 7057 ft 290 kts 146°
2026-05-05 16:09 30.30118 30.97344 7050 ft 285 kts 146°
2026-05-05 16:09 30.28519 30.98635 7050 ft 284 kts 146°
2026-05-05 16:09 30.26896 30.99943 7049 ft 285 kts 146°
2026-05-05 16:10 30.25267 31.01254 7050 ft 285 kts 146°
2026-05-05 16:10 30.23647 31.02559 7036 ft 284 kts 146°
2026-05-05 16:10 30.22015 31.03873 6876 ft 287 kts 145°
2026-05-05 16:10 30.20373 31.05194 6632 ft 287 kts 144°
2026-05-05 16:11 30.18754 31.06499 6457 ft 284 kts 144°
2026-05-05 16:11 30.13848 31.10451 5455 ft 289 kts 144°
2026-05-05 16:12 30.12201 31.11776 5076 ft 288 kts 144°
2026-05-05 16:12 30.08949 31.14387 4350 ft 285 kts 145°
2026-05-05 16:13 30.04171 31.18220 3720 ft 264 kts 145°
2026-05-05 16:13 30.02695 31.19404 3596 ft 253 kts 145°
2026-05-05 16:13 30.01511 31.20793 3495 ft 237 kts 114°
2026-05-05 16:14 30.01738 31.24078 3355 ft 190 kts 56°
2026-05-05 16:14 30.03343 31.26342 2816 ft 181 kts 44°
2026-05-05 16:15 30.04955 31.28540 2308 ft 176 kts 44°
2026-05-05 16:15 30.06487 31.30615 1840 ft 160 kts 42°
2026-05-05 16:16 30.07846 31.32453 1444 ft 142 kts 42°
2026-05-05 16:16 30.09113 31.34160 1092 ft 139 kts 43°
2026-05-05 16:17 30.10358 31.35848 841 ft 137 kts 43°
2026-05-05 16:17 30.10968 31.36689 695 ft 136 kts 43°
2026-05-05 16:18 30.12198 31.38336 400 ft 134 kts 43°
2026-05-05 16:18 30.12731 31.39050 382 ft 86 kts 49°
2026-05-05 16:18 30.13109 31.39630 381 ft 38 kts 70°
2026-05-05 16:19 30.13165 31.39899 381 ft 29 kts 76°
2026-05-05 16:19 30.13261 31.40075 381 ft 12 kts 48°
2026-05-05 16:19 30.13257 31.40296 381 ft 21 kts 102°
2026-05-05 16:20 30.13103 31.40653 381 ft 27 kts 158°
2026-05-05 16:20 30.12712 31.40796 381 ft 32 kts 162°
2026-05-05 16:21 30.12347 31.40928 381 ft 27 kts 162°
2026-05-05 16:22 30.11799 31.41127 381 ft 27 kts 162°
2026-05-05 16:22 30.11466 31.41229 381 ft 21 kts 193°
2026-05-05 16:23 30.11288 31.41024 381 ft 16 kts 229°
2026-05-05 16:23 30.11213 31.40924 381 ft 17 kts 229°
2026-05-05 16:23 30.11068 31.40732 381 ft 12 kts 228°
2026-05-05 16:24 30.11024 31.40656 381 ft 11 kts 262°
2026-05-05 16:24 30.11059 31.40595 381 ft 9 kts 317°
2026-05-05 16:24 30.11174 31.40483 381 ft 15 kts 320°
2026-05-05 16:25 30.11260 31.40397 380 ft 16 kts 313°
2026-05-05 16:25 30.11317 31.40206 380 ft 9 kts 256°
2026-05-05 16:25 30.11284 31.40163 380 ft 6 kts 217°
2026-05-05 16:26 30.11263 31.40146 380 ft 0 kts 214°